| time (UTC) | temp F | wind direction | speed MPH | gust MPH | rain 1hr in | rain 24hr in | rain mn in | humidity % | barometer mb |
| 20260506235250 | 57 | 230 | 1.0 | 1.0 | 0.00 | 0.59 | 0.59 | 61 | 1013.0 |
| 20260506234747 | 57 | 224 | 1.0 | 1.0 | 0.00 | 0.59 | 0.59 | 68 | 1013.0 |
| 20260506234244 | 57 | 233 | 2.0 | 3.0 | 0.00 | 0.59 | 0.59 | 64 | 1012.9 |
| 20260506233742 | 57 | 221 | 0.0 | 0.0 | 0.00 | 0.59 | 0.59 | 68 | 1012.8 |
| 20260506233238 | 57 | 221 | 0.0 | 0.0 | 0.00 | 0.59 | 0.59 | 69 | 1012.7 |
| 20260506232730 | 57 | 229 | 0.0 | 1.0 | 0.00 | 0.59 | 0.59 | 62 | 1012.9 |
| 20260506232230 | 57 | 225 | 0.0 | 0.0 | 0.00 | 0.59 | 0.59 | 70 | 1012.8 |
| 20260506231727 | 57 | 227 | 0.0 | 0.0 | 0.00 | 0.59 | 0.59 | 69 | 1012.8 |
| 20260506231225 | 57 | 227 | 0.0 | 0.0 | 0.00 | 0.59 | 0.59 | 67 | 1013.0 |
| 20260506230722 | 57 | 227 | 0.0 | 0.0 | 0.00 | 0.59 | 0.59 | 65 | 1013.2 |
| 20260506230219 | 58 | 223 | 0.0 | 0.0 | 0.00 | 0.59 | 0.59 | 74 | 1013.0 |
| 20260506225715 | 58 | 223 | 0.0 | 0.0 | 0.00 | 0.59 | 0.59 | 68 | 1013.3 |
| 20260506225212 | 59 | 223 | 0.0 | 0.0 | 0.00 | 0.59 | 0.59 | 66 | 1013.1 |
| 20260506224709 | 58 | 201 | 2.0 | 2.0 | 0.00 | 0.59 | 0.59 | 58 | 1013.1 |
| 20260506224206 | 59 | 224 | 0.0 | 0.0 | 0.00 | 0.59 | 0.59 | 61 | 1013.3 |
| 20260506223702 | 59 | 215 | 0.0 | 1.0 | 0.00 | 0.59 | 0.59 | 57 | 1013.1 |
| 20260506223158 | 59 | 245 | 3.0 | 3.0 | 0.00 | 0.59 | 0.59 | 52 | 1013.2 |
| 20260506222655 | 59 | 231 | 1.0 | 1.0 | 0.00 | 0.59 | 0.59 | 54 | 1013.0 |
| 20260506222150 | 60 | 224 | 1.0 | 1.0 | 0.00 | 0.59 | 0.59 | 53 | 1013.2 |
| 20260506221649 | 60 | 258 | 2.0 | 2.0 | 0.00 | 0.59 | 0.59 | 52 | 1013.0 |
| 20260506221147 | 60 | 269 | 3.0 | 3.0 | 0.00 | 0.59 | 0.59 | 51 | 1012.8 |
| 20260506220643 | 60 | 312 | 3.0 | 4.0 | 0.00 | 0.59 | 0.59 | 49 | 1012.8 |
| 20260506220138 | 61 | 307 | 3.0 | 3.0 | 0.00 | 0.59 | 0.59 | 51 | 1012.6 |
| 20260506215635 | 60 | 219 | 0.0 | 1.0 | 0.00 | 0.59 | 0.59 | 52 | 1012.7 |
| 20260506215130 | 61 | 223 | 2.0 | 2.0 | 0.00 | 0.59 | 0.59 | 52 | 1012.8 |
| 20260506214628 | 61 | 214 | 2.0 | 3.0 | 0.00 | 0.59 | 0.59 | 49 | 1012.5 |
| 20260506214125 | 61 | 247 | 3.0 | 4.0 | 0.00 | 0.59 | 0.59 | 49 | 1012.4 |
| 20260506213623 | 62 | 233 | 0.0 | 0.0 | 0.00 | 0.59 | 0.59 | 56 | 1012.1 |
| 20260506213120 | 62 | 248 | 2.0 | 2.0 | 0.00 | 0.59 | 0.59 | 49 | 1012.1 |
| 20260506212617 | 62 | 260 | 3.0 | 3.0 | 0.00 | 0.59 | 0.59 | 49 | 1012.0 |
| 20260506212112 | 62 | 265 | 3.0 | 4.0 | 0.00 | 0.59 | 0.59 | 48 | 1012.3 |
| 20260506211608 | 62 | 0 | 4.0 | 4.0 | 0.00 | 0.59 | 0.59 | 51 | 1012.2 |
| 20260506211105 | 62 | 238 | 0.0 | 1.0 | 0.00 | 0.59 | 0.59 | 50 | 1012.3 |
| 20260506210602 | 62 | 348 | 6.0 | 7.0 | 0.00 | 0.59 | 0.59 | 47 | 1012.2 |
| 20260506210058 | 62 | 252 | 2.0 | 2.0 | 0.00 | 0.59 | 0.59 | 50 | 1012.2 |
| 20260506205555 | 62 | 303 | 3.0 | 6.0 | 0.00 | 0.59 | 0.59 | 51 | 1012.1 |
| 20260506205050 | 62 | 293 | 2.0 | 2.0 | 0.00 | 0.59 | 0.59 | 50 | 1012.3 |
| 20260506204549 | 63 | 226 | 1.0 | 2.0 | 0.00 | 0.59 | 0.59 | 50 | 1012.4 |
| 20260506204045 | 63 | 211 | 1.0 | 1.0 | 0.00 | 0.59 | 0.59 | 53 | 1012.3 |
| 20260506203544 | 63 | 229 | 0.0 | 1.0 | 0.00 | 0.59 | 0.59 | 48 | 1012.1 |
| 20260506203040 | 64 | 246 | 1.0 | 2.0 | 0.00 | 0.59 | 0.59 | 51 | 1012.0 |
| 20260506202537 | 66 | 350 | 5.0 | 7.0 | 0.00 | 0.59 | 0.59 | 47 | 1012.0 |
| 20260506202033 | 66 | 243 | 0.0 | 1.0 | 0.00 | 0.59 | 0.59 | 49 | 1011.9 |
| 20260506201532 | 65 | 327 | 4.0 | 7.0 | 0.00 | 0.59 | 0.59 | 48 | 1012.1 |
| 20260506201028 | 65 | 322 | 5.0 | 6.0 | 0.00 | 0.59 | 0.59 | 47 | 1012.1 |
| 20260506200524 | 64 | 222 | 1.0 | 2.0 | 0.00 | 0.59 | 0.59 | 52 | 1011.9 |
| 20260506200021 | 63 | 306 | 3.0 | 4.0 | 0.00 | 0.59 | 0.59 | 56 | 1011.8 |
| 20260506195518 | 62 | 227 | 3.0 | 6.0 | 0.00 | 0.59 | 0.59 | 53 | 1011.7 |
| 20260506195014 | 62 | 186 | 1.0 | 1.0 | 0.00 | 0.59 | 0.59 | 54 | 1011.7 |
| 20260506194512 | 63 | 248 | 2.0 | 2.0 | 0.00 | 0.59 | 0.59 | 54 | 1011.8 |
| 20260506194008 | 62 | 222 | 2.0 | 2.0 | 0.00 | 0.59 | 0.59 | 56 | 1011.8 |
| 20260506193506 | 63 | 232 | 2.0 | 3.0 | 0.00 | 0.59 | 0.59 | 56 | 1011.7 |
| 20260506193002 | 62 | 244 | 3.0 | 3.0 | 0.00 | 0.59 | 0.59 | 55 | 1011.9 |
| 20260506192459 | 62 | 189 | 2.0 | 3.0 | 0.00 | 0.59 | 0.59 | 56 | 1011.9 |
| 20260506191955 | 62 | 271 | 2.0 | 3.0 | 0.00 | 0.59 | 0.59 | 56 | 1012.0 |
| 20260506191452 | 62 | 259 | 2.0 | 3.0 | 0.00 | 0.59 | 0.59 | 57 | 1011.9 |
| 20260506190948 | 61 | 276 | 0.0 | 1.0 | 0.00 | 0.59 | 0.59 | 58 | 1012.1 |
| 20260506190445 | 61 | 325 | 6.0 | 9.0 | 0.00 | 0.59 | 0.59 | 57 | 1012.1 |
| 20260506185942 | 61 | 230 | 2.0 | 3.0 | 0.00 | 0.59 | 0.59 | 61 | 1012.2 |
| 20260506185439 | 61 | 345 | 7.0 | 8.0 | 0.00 | 0.59 | 0.59 | 60 | 1011.9 |
| 20260506184936 | 61 | 323 | 2.0 | 2.0 | 0.00 | 0.59 | 0.59 | 61 | 1012.1 |
| 20260506184433 | 63 | 250 | 4.0 | 6.0 | 0.00 | 0.59 | 0.59 | 57 | 1012.0 |
| 20260506183930 | 62 | 305 | 6.0 | 9.0 | 0.00 | 0.59 | 0.59 | 57 | 1012.0 |
| 20260506183425 | 63 | 249 | 2.0 | 3.0 | 0.00 | 0.59 | 0.59 | 62 | 1012.0 |
| 20260506182923 | 63 | 4 | 4.0 | 6.0 | 0.00 | 0.59 | 0.59 | 60 | 1011.9 |
| 20260506182420 | 60 | 215 | 0.0 | 1.0 | 0.00 | 0.59 | 0.59 | 62 | 1012.1 |
| 20260506181918 | 60 | 268 | 2.0 | 3.0 | 0.00 | 0.59 | 0.59 | 63 | 1012.2 |
| 20260506181415 | 60 | 236 | 3.0 | 3.0 | 0.00 | 0.59 | 0.59 | 63 | 1012.2 |
| 20260506180912 | 60 | 277 | 2.0 | 3.0 | 0.00 | 0.59 | 0.59 | 63 | 1012.3 |
| 20260506180408 | 60 | 286 | 2.0 | 2.0 | 0.00 | 0.59 | 0.59 | 65 | 1012.3 |
| 20260506175905 | 62 | 187 | 3.0 | 3.0 | 0.00 | 0.59 | 0.59 | 62 | 1012.1 |
| 20260506175401 | 61 | 221 | 1.0 | 1.0 | 0.00 | 0.59 | 0.59 | 66 | 1012.2 |
| 20260506174858 | 60 | 38 | 7.0 | 10.0 | 0.00 | 0.59 | 0.59 | 64 | 1012.2 |
| 20260506174356 | 60 | 211 | 0.0 | 1.0 | 0.00 | 0.59 | 0.59 | 71 | 1012.1 |
| 20260506173853 | 59 | 272 | 4.0 | 6.0 | 0.00 | 0.59 | 0.59 | 68 | 1012.1 |
| 20260506173350 | 59 | 80 | 3.0 | 3.0 | 0.00 | 0.59 | 0.59 | 72 | 1012.5 |
| 20260506172847 | 59 | 340 | 5.0 | 7.0 | 0.00 | 0.59 | 0.59 | 73 | 1012.5 |
| 20260506172344 | 59 | 221 | 2.0 | 2.0 | 0.00 | 0.59 | 0.59 | 74 | 1012.5 |
| 20260506171841 | 59 | 254 | 2.0 | 2.0 | 0.00 | 0.59 | 0.59 | 72 | 1012.6 |
| 20260506171338 | 60 | 216 | 2.0 | 2.0 | 0.00 | 0.59 | 0.59 | 70 | 1012.5 |
| 20260506170836 | 60 | 188 | 1.0 | 2.0 | 0.00 | 0.59 | 0.59 | 73 | 1012.5 |
| 20260506170331 | 59 | 42 | 4.0 | 6.0 | 0.00 | 0.59 | 0.59 | 71 | 1012.5 |
| 20260506165826 | 58 | 233 | 1.0 | 2.0 | 0.00 | 0.59 | 0.59 | 73 | 1012.5 |
| 20260506165323 | 57 | 203 | 2.0 | 2.0 | 0.00 | 0.59 | 0.59 | 75 | 1012.4 |
| 20260506164819 | 58 | 343 | 5.0 | 6.0 | 0.00 | 0.59 | 0.59 | 77 | 1012.3 |
| 20260506164315 | 58 | 206 | 1.0 | 1.0 | 0.00 | 0.59 | 0.59 | 78 | 1012.1 |
| 20260506163813 | 57 | 224 | 1.0 | 1.0 | 0.00 | 0.59 | 0.59 | 76 | 1012.1 |
| 20260506163307 | 57 | 217 | 1.0 | 1.0 | 0.00 | 0.59 | 0.59 | 77 | 1012.1 |
| 20260506162803 | 58 | 332 | 5.0 | 6.0 | 0.00 | 0.59 | 0.59 | 77 | 1012.2 |
| 20260506162301 | 58 | 217 | 0.0 | 1.0 | 0.00 | 0.59 | 0.59 | 73 | 1012.5 |
| 20260506161758 | 57 | 247 | 3.0 | 4.0 | 0.00 | 0.59 | 0.59 | 78 | 1012.6 |
| 20260506161256 | 56 | 226 | 1.0 | 1.0 | 0.00 | 0.59 | 0.59 | 79 | 1012.5 |
| 20260506160753 | 56 | 245 | 2.0 | 3.0 | 0.00 | 0.59 | 0.59 | 81 | 1012.7 |
| 20260506160250 | 55 | 262 | 5.0 | 6.0 | 0.00 | 0.59 | 0.59 | 80 | 1012.4 |
| 20260506155749 | 55 | 331 | 3.0 | 4.0 | 0.00 | 0.59 | 0.59 | 81 | 1012.4 |
| 20260506155245 | 55 | 230 | 0.0 | 0.0 | 0.00 | 0.59 | 0.59 | 82 | 1012.5 |
| 20260506153352 | 55 | 323 | 3.0 | 3.0 | 0.00 | 0.59 | 0.59 | 85 | 1012.3 |
| 20260506152849 | 54 | 246 | 1.0 | 1.0 | 0.00 | 0.59 | 0.59 | 85 | 1012.0 |
| 20260506152346 | 53 | 257 | 2.0 | 2.0 | 0.00 | 0.59 | 0.59 | 84 | 1011.9 |
| 20260506151845 | 53 | 227 | 1.0 | 1.0 | 0.00 | 0.59 | 0.59 | 85 | 1011.8 |
| 20260506151341 | 52 | 241 | 2.0 | 3.0 | 0.00 | 0.59 | 0.59 | 87 | 1011.9 |
| 20260506150838 | 52 | 205 | 1.0 | 2.0 | 0.00 | 0.59 | 0.59 | 89 | 1011.8 |
| 20260506150335 | 51 | 234 | 2.0 | 2.0 | 0.00 | 0.59 | 0.59 | 90 | 1011.9 |
| 20260506145832 | 51 | 225 | 3.0 | 4.0 | 0.00 | 0.59 | 0.59 | 91 | 1011.9 |
| 20260506145328 | 50 | 273 | 2.0 | 2.0 | 0.00 | 0.59 | 0.59 | 92 | 1011.8 |
| 20260506144826 | 50 | 5 | 4.0 | 4.0 | 0.00 | 0.59 | 0.59 | 92 | 1011.6 |
| 20260506144322 | 50 | 210 | 2.0 | 3.0 | 0.00 | 0.59 | 0.59 | 93 | 1011.9 |
| 20260506143821 | 51 | 194 | 4.0 | 6.0 | 0.00 | 0.59 | 0.59 | 92 | 1011.7 |
| 20260506143317 | 51 | 230 | 2.0 | 2.0 | 0.00 | 0.59 | 0.59 | 93 | 1011.4 |
| 20260506142815 | 51 | 262 | 4.0 | 6.0 | 0.00 | 0.59 | 0.59 | 93 | 1011.1 |
| 20260506142313 | 50 | 267 | 3.0 | 3.0 | 0.00 | 0.59 | 0.59 | 93 | 1011.1 |
| 20260506141811 | 50 | 9 | 3.0 | 3.0 | 0.00 | 0.59 | 0.59 | 94 | 1011.2 |
| 20260506141309 | 50 | 0 | 4.0 | 4.0 | 0.00 | 0.59 | 0.59 | 93 | 1011.3 |
| 20260506140807 | 50 | 235 | 2.0 | 3.0 | 0.00 | 0.59 | 0.59 | 94 | 1011.2 |
| 20260506140303 | 50 | 249 | 2.0 | 2.0 | 0.00 | 0.59 | 0.59 | 94 | 1011.2 |
| 20260506135800 | 50 | 220 | 1.0 | 1.0 | 0.00 | 0.59 | 0.59 | 95 | 1011.0 |
| 20260506135256 | 50 | 222 | 1.0 | 1.0 | 0.00 | 0.59 | 0.59 | 95 | 1011.0 |
| 20260506134753 | 50 | 245 | 3.0 | 4.0 | 0.00 | 0.59 | 0.59 | 95 | 1010.8 |
| 20260506134249 | 49 | 230 | 2.0 | 2.0 | 0.00 | 0.59 | 0.59 | 95 | 1010.8 |
| 20260506133747 | 50 | 253 | 4.0 | 7.0 | 0.00 | 0.59 | 0.59 | 95 | 1010.7 |
| 20260506133243 | 49 | 324 | 6.0 | 8.0 | 0.00 | 0.59 | 0.59 | 96 | 1010.5 |
| 20260506132740 | 49 | 272 | 3.0 | 4.0 | 0.00 | 0.59 | 0.59 | 96 | 1010.3 |
| 20260506132238 | 49 | 226 | 1.0 | 2.0 | 0.00 | 0.59 | 0.59 | 97 | 1010.5 |
| 20260506131736 | 49 | 339 | 4.0 | 4.0 | 0.05 | 0.59 | 0.59 | 97 | 1010.4 |
| 20260506131231 | 49 | 241 | 2.0 | 3.0 | 0.05 | 0.59 | 0.59 | 97 | 1010.5 |
| 20260506130728 | 49 | 218 | 1.0 | 2.0 | 0.00 | 0.58 | 0.58 | 97 | 1010.4 |
| 20260506130225 | 49 | 249 | 2.0 | 3.0 | 0.07 | 0.58 | 0.58 | 97 | 1010.2 |
| 20260506125723 | 50 | 6 | 3.0 | 3.0 | 0.07 | 0.58 | 0.58 | 97 | 1010.2 |
| 20260506125221 | 50 | 352 | 4.0 | 6.0 | 0.00 | 0.57 | 0.57 | 97 | 1010.4 |
| 20260506124719 | 50 | 2 | 8.0 | 9.0 | 0.00 | 0.57 | 0.57 | 97 | 1010.0 |
| 20260506124216 | 50 | 222 | 1.0 | 2.0 | 0.05 | 0.57 | 0.57 | 97 | 1010.0 |
| 20260506123713 | 50 | 56 | 3.0 | 4.0 | 0.05 | 0.57 | 0.57 | 97 | 1009.8 |
| 20260506123212 | 51 | 328 | 2.0 | 3.0 | 0.05 | 0.57 | 0.57 | 97 | 1009.3 |
| 20260506122709 | 51 | 188 | 2.0 | 2.0 | 0.00 | 0.56 | 0.56 | 98 | 1009.1 |
| 20260506122206 | 51 | 227 | 1.0 | 1.0 | 0.00 | 0.56 | 0.56 | 98 | 1008.8 |
| 20260506121704 | 52 | 243 | 3.0 | 4.0 | 0.00 | 0.56 | 0.56 | 98 | 1008.7 |
| 20260506121200 | 52 | 270 | 2.0 | 2.0 | 0.00 | 0.56 | 0.56 | 98 | 1008.5 |
| 20260506120658 | 53 | 217 | 1.0 | 2.0 | 0.00 | 0.56 | 0.56 | 98 | 1008.5 |
| 20260506120155 | 53 | 255 | 1.0 | 2.0 | 0.00 | 0.56 | 0.56 | 98 | 1008.4 |
| 20260506115654 | 54 | 296 | 3.0 | 3.0 | 0.00 | 0.56 | 0.56 | 98 | 1008.2 |
| 20260506115151 | 54 | 251 | 3.0 | 4.0 | 0.00 | 0.56 | 0.56 | 98 | 1008.4 |
| 20260506114648 | 54 | 211 | 0.0 | 1.0 | 0.00 | 0.56 | 0.56 | 98 | 1008.2 |
| 20260506114146 | 54 | 207 | 0.0 | 1.0 | 0.00 | 0.56 | 0.56 | 99 | 1008.1 |
| 20260506113645 | 54 | 266 | 2.0 | 3.0 | 0.00 | 0.56 | 0.56 | 99 | 1007.7 |
| 20260506113141 | 55 | 273 | 2.0 | 2.0 | 0.00 | 0.56 | 0.56 | 99 | 1007.9 |
| 20260506112637 | 55 | 221 | 0.0 | 0.0 | 0.07 | 0.56 | 0.56 | 99 | 1007.8 |
| 20260506112135 | 55 | 223 | 1.0 | 1.0 | 0.07 | 0.56 | 0.56 | 99 | 1007.6 |
| 20260506111633 | 55 | 233 | 1.0 | 1.0 | 0.00 | 0.55 | 0.55 | 99 | 1007.7 |
| 20260506111130 | 56 | 255 | 4.0 | 4.0 | 0.05 | 0.55 | 0.55 | 99 | 1007.6 |
| 20260506110627 | 57 | 277 | 3.0 | 3.0 | 0.05 | 0.55 | 0.55 | 99 | 1007.7 |
| 20260506110125 | 57 | 218 | 2.0 | 2.0 | 0.00 | 0.54 | 0.54 | 99 | 1007.7 |
| 20260506105621 | 57 | 204 | 0.0 | 0.0 | 0.07 | 0.54 | 0.54 | 99 | 1007.3 |
| 20260506105118 | 57 | 209 | 0.0 | 0.0 | 0.07 | 0.54 | 0.54 | 99 | 1007.1 |
| 20260506104616 | 57 | 224 | 1.0 | 1.0 | 0.00 | 0.53 | 0.53 | 99 | 1007.0 |
| 20260506104114 | 57 | 207 | 1.0 | 2.0 | 0.00 | 0.53 | 0.53 | 99 | 1007.2 |
| 20260506103611 | 57 | 207 | 1.0 | 1.0 | 0.00 | 0.53 | 0.53 | 99 | 1007.1 |
| 20260506103108 | 57 | 207 | 1.0 | 1.0 | 0.00 | 0.53 | 0.53 | 99 | 1006.7 |
| 20260506102606 | 57 | 207 | 0.0 | 0.0 | 0.00 | 0.53 | 0.53 | 99 | 1006.8 |
| 20260506102103 | 57 | 208 | 0.0 | 0.0 | 0.00 | 0.53 | 0.53 | 99 | 1006.7 |
| 20260506101600 | 57 | 207 | 0.0 | 0.0 | 0.00 | 0.53 | 0.53 | 99 | 1006.6 |
| 20260506101056 | 57 | 208 | 0.0 | 0.0 | 0.00 | 0.53 | 0.53 | 99 | 1006.6 |
| 20260506100555 | 57 | 207 | 0.0 | 0.0 | 0.00 | 0.53 | 0.53 | 99 | 1006.8 |
| 20260506100053 | 57 | 207 | 0.0 | 0.0 | 0.00 | 0.53 | 0.53 | 99 | 1006.8 |
| 20260506095551 | 57 | 208 | 0.0 | 0.0 | 0.00 | 0.53 | 0.53 | 99 | 1006.8 |
| 20260506095047 | 57 | 207 | 0.0 | 0.0 | 0.00 | 0.53 | 0.53 | 99 | 1006.6 |
| 20260506094545 | 57 | 207 | 0.0 | 0.0 | 0.00 | 0.53 | 0.53 | 99 | 1006.7 |
| 20260506094043 | 57 | 207 | 0.0 | 0.0 | 0.00 | 0.53 | 0.53 | 99 | 1006.5 |
| 20260506093541 | 57 | 207 | 0.0 | 0.0 | 0.00 | 0.53 | 0.53 | 99 | 1006.7 |
| 20260506093038 | 57 | 207 | 0.0 | 0.0 | 0.00 | 0.53 | 0.53 | 99 | 1006.8 |
| 20260506092536 | 57 | 207 | 0.0 | 0.0 | 0.00 | 0.53 | 0.53 | 99 | 1006.9 |
| 20260506092032 | 57 | 207 | 0.0 | 0.0 | 0.00 | 0.53 | 0.53 | 99 | 1006.9 |
| 20260506091531 | 57 | 207 | 0.0 | 0.0 | 0.00 | 0.53 | 0.53 | 99 | 1007.0 |
| 20260506091027 | 57 | 207 | 0.0 | 1.0 | 0.07 | 0.53 | 0.53 | 99 | 1006.8 |
| 20260506090525 | 57 | 208 | 0.0 | 0.0 | 0.12 | 0.53 | 0.53 | 99 | 1007.0 |
| 20260506090021 | 57 | 215 | 0.0 | 0.0 | 0.12 | 0.52 | 0.52 | 99 | 1007.1 |
| 20260506085518 | 57 | 215 | 0.0 | 0.0 | 0.19 | 0.51 | 0.51 | 99 | 1007.0 |
| 20260506085015 | 57 | 215 | 0.0 | 0.0 | 0.17 | 0.50 | 0.50 | 99 | 1007.0 |
| 20260506084512 | 57 | 201 | 0.0 | 0.0 | 0.19 | 0.49 | 0.49 | 99 | 1007.1 |
| 20260506084008 | 57 | 200 | 1.0 | 1.0 | 0.19 | 0.47 | 0.47 | 99 | 1007.0 |
| 20260506083505 | 57 | 200 | 0.0 | 0.0 | 0.17 | 0.46 | 0.46 | 99 | 1007.0 |
| 20260506083002 | 57 | 200 | 0.0 | 1.0 | 0.12 | 0.44 | 0.44 | 99 | 1006.9 |
| 20260506082459 | 57 | 202 | 0.0 | 1.0 | 0.19 | 0.43 | 0.43 | 99 | 1006.8 |
| 20260506081955 | 57 | 201 | 0.0 | 0.0 | 0.24 | 0.42 | 0.42 | 99 | 1006.9 |
| 20260506081453 | 57 | 200 | 1.0 | 1.0 | 0.24 | 0.40 | 0.40 | 99 | 1007.0 |
| 20260506080951 | 57 | 203 | 0.0 | 1.0 | 0.31 | 0.38 | 0.38 | 99 | 1006.9 |
| 20260506080447 | 57 | 196 | 1.0 | 1.0 | 0.31 | 0.36 | 0.36 | 99 | 1006.9 |
| 20260506073431 | 58 | 205 | 0.0 | 1.0 | 0.19 | 0.29 | 0.29 | 99 | 1007.0 |
| 20260506072928 | 58 | 205 | 1.0 | 1.0 | 0.12 | 0.27 | 0.27 | 99 | 1007.3 |
| 20260506072425 | 58 | 205 | 0.0 | 0.0 | 0.12 | 0.26 | 0.26 | 99 | 1007.2 |
| 20260506071923 | 58 | 205 | 1.0 | 1.0 | 0.19 | 0.25 | 0.25 | 99 | 1007.2 |
| 20260506071421 | 58 | 206 | 0.0 | 1.0 | 0.17 | 0.24 | 0.24 | 99 | 1007.3 |
| 20260506070918 | 58 | 206 | 0.0 | 0.0 | 0.19 | 0.23 | 0.23 | 99 | 1007.1 |
| 20260506070415 | 58 | 206 | 0.0 | 0.0 | 0.24 | 0.21 | 0.21 | 99 | 1007.2 |
| 20260506062352 | 58 | 221 | 0.0 | 0.0 | 0.07 | 0.08 | 0.08 | 99 | 1007.5 |
| 20260506061848 | 58 | 221 | 0.0 | 0.0 | 0.00 | 0.07 | 0.07 | 99 | 1007.5 |
| 20260506061344 | 58 | 221 | 1.0 | 1.0 | 0.00 | 0.07 | 0.07 | 99 | 1007.1 |
| 20260506060843 | 58 | 219 | 0.0 | 0.0 | 0.00 | 0.07 | 0.07 | 99 | 1006.9 |
| 20260506060340 | 58 | 219 | 0.0 | 0.0 | 0.00 | 0.07 | 0.07 | 99 | 1007.0 |
| 20260506051312 | 58 | 222 | 0.0 | 0.0 | 0.00 | 0.04 | 0.04 | 98 | 1007.7 |
| 20260506050810 | 58 | 222 | 0.0 | 0.0 | 0.07 | 0.04 | 0.04 | 98 | 1007.8 |
| 20260506050307 | 58 | 223 | 0.0 | 0.0 | 0.07 | 0.04 | 0.04 | 98 | 1008.0 |
| 20260506044758 | 59 | 206 | 2.0 | 2.0 | 0.00 | 0.03 | 0.03 | 98 | 1007.8 |
| 20260506044255 | 59 | 225 | 0.0 | 0.0 | 0.00 | 0.03 | 0.03 | 98 | 1008.2 |
| 20260506043752 | 59 | 225 | 0.0 | 0.0 | 0.00 | 0.03 | 0.03 | 98 | 1008.2 |
| 20260506043249 | 59 | 225 | 0.0 | 0.0 | 0.00 | 0.03 | 0.03 | 98 | 1008.4 |
| 20260506042748 | 59 | 225 | 0.0 | 0.0 | 0.07 | 0.03 | 0.03 | 98 | 1008.4 |
| 20260506042247 | 59 | 224 | 0.0 | 0.0 | 0.12 | 0.03 | 0.03 | 98 | 1008.6 |
| 20260506041745 | 59 | 225 | 0.0 | 0.0 | 0.12 | 0.02 | 0.02 | 98 | 1009.2 |
| 20260506041241 | 59 | 225 | 0.0 | 0.0 | 0.07 | 0.01 | 0.01 | 98 | 1009.1 |
| 20260506040739 | 59 | 225 | 0.0 | 0.0 | 0.05 | 0.00 | 0.00 | 97 | 1009.0 |
| 20260506040236 | 59 | 225 | 0.0 | 0.0 | 0.05 | 0.00 | 0.00 | 97 | 1009.2 |
| 20260506035732 | 59 | 225 | 0.0 | 0.0 | 0.00 | 0.03 | 0.03 | 97 | 1009.0 |
| 20260506035230 | 59 | 225 | 0.0 | 0.0 | 0.07 | 0.03 | 0.03 | 97 | 1009.0 |
| 20260506034726 | 59 | 225 | 0.0 | 0.0 | 0.07 | 0.03 | 0.03 | 97 | 1009.1 |
| 20260506034223 | 59 | 225 | 0.0 | 0.0 | 0.07 | 0.03 | 0.03 | 97 | 1008.7 |
| 20260506033721 | 59 | 225 | 0.0 | 0.0 | 0.00 | 0.02 | 0.02 | 97 | 1008.6 |
| 20260506033218 | 59 | 225 | 0.0 | 0.0 | 0.00 | 0.02 | 0.02 | 97 | 1008.5 |
| 20260506032715 | 59 | 225 | 0.0 | 0.0 | 0.00 | 0.02 | 0.02 | 97 | 1008.5 |
| 20260506032212 | 59 | 225 | 0.0 | 0.0 | 0.00 | 0.02 | 0.02 | 97 | 1008.5 |
| 20260506031708 | 59 | 225 | 0.0 | 0.0 | 0.00 | 0.02 | 0.02 | 97 | 1008.5 |
| 20260506031206 | 59 | 225 | 0.0 | 0.0 | 0.00 | 0.02 | 0.02 | 97 | 1008.6 |
| 20260506030704 | 59 | 225 | 0.0 | 0.0 | 0.00 | 0.02 | 0.02 | 97 | 1008.7 |
| 20260506030201 | 59 | 225 | 0.0 | 0.0 | 0.00 | 0.02 | 0.02 | 97 | 1008.4 |
| 20260506025657 | 59 | 225 | 0.0 | 0.0 | 0.00 | 0.02 | 0.02 | 97 | 1008.5 |
| 20260506025154 | 59 | 225 | 0.0 | 0.0 | 0.00 | 0.02 | 0.02 | 96 | 1008.3 |
| 20260506024651 | 59 | 225 | 0.0 | 0.0 | 0.00 | 0.02 | 0.02 | 96 | 1008.7 |
| 20260506024148 | 59 | 225 | 0.0 | 0.0 | 0.00 | 0.02 | 0.02 | 96 | 1008.6 |
| 20260506023644 | 59 | 225 | 0.0 | 0.0 | 0.00 | 0.02 | 0.02 | 95 | 1008.6 |
| 20260506023141 | 59 | 225 | 0.0 | 0.0 | 0.00 | 0.02 | 0.02 | 95 | 1008.5 |
| 20260506022638 | 59 | 213 | 1.0 | 1.0 | 0.05 | 0.02 | 0.02 | 95 | 1008.6 |
| 20260506022135 | 59 | 213 | 0.0 | 0.0 | 0.05 | 0.02 | 0.02 | 94 | 1008.7 |
| 20260506021633 | 60 | 213 | 0.0 | 0.0 | 0.00 | 0.01 | 0.01 | 93 | 1008.8 |
| 20260506021130 | 60 | 214 | 0.0 | 0.0 | 0.00 | 0.01 | 0.01 | 93 | 1008.5 |
| 20260506020627 | 60 | 213 | 0.0 | 0.0 | 0.00 | 0.01 | 0.01 | 92 | 1008.4 |
| 20260506020125 | 60 | 213 | 0.0 | 0.0 | 0.07 | 0.01 | 0.01 | 91 | 1008.5 |
| 20260506015623 | 61 | 213 | 0.0 | 0.0 | 0.07 | 0.01 | 0.01 | 89 | 1008.6 |
| 20260506015120 | 61 | 213 | 0.0 | 0.0 | 0.00 | 0.00 | 0.00 | 88 | 1008.5 |
| 20260506014617 | 61 | 213 | 0.0 | 0.0 | 0.00 | 0.00 | 0.00 | 85 | 1008.6 |
| 20260506014113 | 62 | 213 | 0.0 | 0.0 | 0.00 | 0.00 | 0.00 | 84 | 1008.6 |
| 20260506013611 | 63 | 213 | 0.0 | 0.0 | 0.00 | 0.00 | 0.00 | 81 | 1008.9 |
| 20260506013107 | 63 | 213 | 0.0 | 0.0 | 0.00 | 0.00 | 0.00 | 78 | 1008.6 |
| 20260506012603 | 64 | 213 | 0.0 | 0.0 | 0.00 | 0.00 | 0.00 | 76 | 1008.7 |
| 20260506012100 | 64 | 213 | 0.0 | 0.0 | 0.00 | 0.00 | 0.00 | 74 | 1008.6 |
| 20260506011558 | 65 | 213 | 0.0 | 0.0 | 0.00 | 0.00 | 0.00 | 71 | 1008.6 |
| 20260506011054 | 65 | 213 | 0.0 | 0.0 | 0.00 | 0.00 | 0.00 | 69 | 1008.5 |
| 20260506010553 | 66 | 213 | 0.0 | 0.0 | 0.00 | 0.00 | 0.00 | 67 | 1008.7 |
| 20260506010049 | 66 | 213 | 0.0 | 0.0 | 0.00 | 0.00 | 0.00 | 65 | 1008.5 |
| 20260506005547 | 67 | 203 | 0.0 | 0.0 | 0.00 | 0.00 | 0.00 | 64 | 1008.5 |
| 20260506005043 | 67 | 203 | 1.0 | 1.0 | 0.00 | 0.00 | 0.00 | 61 | 1008.6 |
| 20260506004540 | 68 | 205 | 0.0 | 0.0 | 0.00 | 0.00 | 0.00 | 63 | 1008.6 |
| 20260506004037 | 68 | 209 | 0.0 | 0.0 | 0.00 | 0.00 | 0.00 | 61 | 1008.6 |
| 20260506003533 | 69 | 210 | 0.0 | 1.0 | 0.00 | 0.00 | 0.00 | 58 | 1008.7 |
| 20260506003029 | 69 | 206 | 0.0 | 0.0 | 0.00 | 0.00 | 0.00 | 57 | 1008.7 |
| 20260506002525 | 69 | 215 | 1.0 | 1.0 | 0.00 | 0.00 | 0.00 | 56 | 1008.7 |
| 20260506002021 | 69 | 204 | 1.0 | 2.0 | 0.00 | 0.00 | 0.00 | 56 | 1008.6 |
| 20260506001518 | 70 | 197 | 1.0 | 2.0 | 0.00 | 0.00 | 0.00 | 56 | 1008.7 |
| 20260506001015 | 70 | 196 | 0.0 | 1.0 | 0.00 | 0.00 | 0.00 | 54 | 1008.7 |
| 20260506000513 | 70 | 209 | 1.0 | 1.0 | 0.00 | 0.00 | 0.00 | 55 | 1008.6 |
| 20260506000010 | 70 | 131 | 4.0 | 4.0 | 0.00 | 0.00 | 0.00 | 54 | 1008.6 |
| 20260505235508 | 70 | 207 | 2.0 | 2.0 | 0.00 | 0.00 | 0.00 | 53 | 1008.7 |